• In Deutschland
  • Länderverzeichnis
  • Für 7 Tage
  • Wassertemperatur
  • Satellitenkarten
  • Wetterkarte
  • Widgets
  • user-avatar
    Anmelden

    Stündliche Wetter Auggen

    Heute, 13 Dezember, Mittwoch

    Zeit Temperatur Niederschläge Wind Luftdruck Luftfeuchtigkeit
    00:00 -2°C° 0 mm 2 m/S 739 mmHg 91%
    01:00 -2°C° 0 mm 2 m/S 739 mmHg 91%
    02:00 -2°C° 0 mm 2 m/S 738 mmHg 90%
    03:00 -2°C° 0 mm 2 m/S 738 mmHg 89%
    04:00 -2°C° 0 mm 2 m/S 738 mmHg 88%
    05:00 -2°C° 0 mm 2 m/S 738 mmHg 87%
    06:00 -2°C° 0 mm 2 m/S 738 mmHg 86%
    07:00 -2°C° 0 mm 2 m/S 738 mmHg 86%
    08:00 -1°C° 0 mm 3 m/S 737 mmHg 82%
    09:00 -1°C° 0 mm 3 m/S 736 mmHg 78%
    10:00 0°C° 0 mm 3 m/S 736 mmHg 73%
    11:00 +1°C° 0 mm 4 m/S 735 mmHg 69%
    12:00 +3°C° 0 mm 4 m/S 734 mmHg 65%
    13:00 +4°C° 0 mm 4 m/S 733 mmHg 61%
    14:00 +3°C° 0,5 mm 5 m/S 732 mmHg 65%
    15:00 +3°C° 0,5 mm 5 m/S 732 mmHg 70%
    16:00 +2°C° 0,5 mm 5 m/S 731 mmHg 74%
    17:00 +3°C° 0,4 mm 5 m/S 730 mmHg 76%
    18:00 +3°C° 0,4 mm 5 m/S 730 mmHg 79%
    19:00 +3°C° 0,4 mm 5 m/S 730 mmHg 81%
    20:00 +3°C° 0,7 mm 6 m/S 728 mmHg 82%
    21:00 +3°C° 0,7 mm 6 m/S 727 mmHg 83%
    22:00 +4°C° 0,7 mm 6 m/S 726 mmHg 84%
    23:00 +4°C° 0,7 mm 6 m/S 726 mmHg 84%

    Morgen, 14 Dezember, Donnerstag

    Zeit Temperatur Niederschläge Wind Luftdruck Luftfeuchtigkeit
    00:00 +5°C° 0,7 mm 7 m/S 726 mmHg 84%
    01:00 +6°C° 0,7 mm 8 m/S 726 mmHg 84%
    02:00 +6°C° 0,6 mm 8 m/S 726 mmHg 83%
    03:00 +5°C° 0,6 mm 8 m/S 726 mmHg 83%
    04:00 +5°C° 0,6 mm 8 m/S 726 mmHg 82%
    05:00 +4°C° 0,7 mm 8 m/S 727 mmHg 82%
    06:00 +3°C° 0,7 mm 7 m/S 728 mmHg 81%
    07:00 +3°C° 0,7 mm 7 m/S 729 mmHg 81%
    08:00 +2°C° 0,2 mm 6 m/S 729 mmHg 80%
    09:00 +2°C° 0,2 mm 6 m/S 729 mmHg 80%
    10:00 +2°C° 0,2 mm 5 m/S 730 mmHg 80%
    11:00 +2°C° 0 mm 6 m/S 729 mmHg 78%
    12:00 +3°C° 0 mm 6 m/S 729 mmHg 76%
    13:00 +3°C° 0 mm 6 m/S 729 mmHg 74%
    14:00 +3°C° 0,1 mm 6 m/S 728 mmHg 76%
    15:00 +3°C° 0,1 mm 5 m/S 727 mmHg 78%
    16:00 +3°C° 0,1 mm 5 m/S 726 mmHg 80%
    17:00 +4°C° 1,1 mm 4 m/S 726 mmHg 83%
    18:00 +4°C° 1,1 mm 4 m/S 725 mmHg 86%
    19:00 +4°C° 1,1 mm 4 m/S 724 mmHg 90%
    20:00 +3°C° 2 mm 5 m/S 724 mmHg 89%
    21:00 +5°C° 2 mm 5 m/S 723 mmHg 89%
    22:00 +5°C° 2 mm 5 m/S 723 mmHg 89%
    23:00 +5°C° 1,3 mm 5 m/S 723 mmHg 89%

    übermorgen, 15 Dezember, Freitag

    Zeit Temperatur Niederschläge Wind Luftdruck Luftfeuchtigkeit
    00:00 +3°C° 1,3 mm 5 m/S 723 mmHg 89%
    01:00 +3°C° 1,3 mm 5 m/S 723 mmHg 88%
    02:00 +3°C° 0,7 mm 5 m/S 723 mmHg 87%
    03:00 +2°C° 0,7 mm 5 m/S 724 mmHg 86%
    04:00 +3°C° 0,7 mm 4 m/S 724 mmHg 84%
    05:00 +1°C° 0 mm 4 m/S 724 mmHg 85%
    06:00 +1°C° 0 mm 4 m/S 725 mmHg 86%
    07:00 +2°C° 0 mm 3 m/S 725 mmHg 87%
    08:00 +2°C° 0 mm 3 m/S 725 mmHg 86%
    09:00 +2°C° 0 mm 3 m/S 725 mmHg 86%
    10:00 +2°C° 0 mm 3 m/S 725 mmHg 85%
    11:00 +3°C° 0 mm 3 m/S 725 mmHg 83%
    12:00 +3°C° 0 mm 4 m/S 725 mmHg 81%
    13:00 +3°C° 0 mm 4 m/S 725 mmHg 79%
    14:00 +3°C° 0,1 mm 4 m/S 725 mmHg 80%
    15:00 +3°C° 0,1 mm 3 m/S 725 mmHg 81%
    16:00 +2°C° 0,1 mm 3 m/S 725 mmHg 83%
    17:00 +2°C° 0,1 mm 3 m/S 726 mmHg 84%
    18:00 +1°C° 0,1 mm 3 m/S 726 mmHg 85%
    19:00 +2°C° 0,1 mm 2 m/S 726 mmHg 87%
    20:00 +1°C° 0,1 mm 2 m/S 727 mmHg 87%
    21:00 +1°C° 0,1 mm 2 m/S 727 mmHg 87%
    22:00 +1°C° 0,1 mm 2 m/S 727 mmHg 87%
    23:00 +1°C° 0,4 mm 2 m/S 727 mmHg 87%

    16 Dezember, Samstag

    Zeit Temperatur Niederschläge Wind Luftdruck Luftfeuchtigkeit
    00:00 +1°C° 0,4 mm 2 m/S 727 mmHg 88%
    01:00 +2°C° 0,4 mm 1 m/S 727 mmHg 88%
    02:00 +2°C° 0,4 mm 1 m/S 728 mmHg 89%
    03:00 +1°C° 0,4 mm 2 m/S 728 mmHg 91%
    04:00 +2°C° 0,4 mm 2 m/S 729 mmHg 92%
    05:00 +2°C° 0,2 mm 2 m/S 729 mmHg 92%
    06:00 +2°C° 0,2 mm 2 m/S 730 mmHg 93%
    07:00 +2°C° 0,2 mm 2 m/S 730 mmHg 93%
    08:00 +2°C° 0,1 mm 2 m/S 731 mmHg 92%
    09:00 +2°C° 0,1 mm 2 m/S 732 mmHg 91%
    10:00 +2°C° 0,1 mm 2 m/S 732 mmHg 89%
    11:00 +3°C° 0,2 mm 2 m/S 733 mmHg 88%
    12:00 +3°C° 0,2 mm 2 m/S 733 mmHg 86%
    13:00 +3°C° 0,2 mm 2 m/S 734 mmHg 84%
    14:00 +3°C° 0,2 mm 2 m/S 734 mmHg 86%
    15:00 +2°C° 0,2 mm 2 m/S 735 mmHg 88%
    16:00 +2°C° 0,2 mm 2 m/S 735 mmHg 89%
    17:00 +2°C° 0,1 mm 2 m/S 736 mmHg 90%
    18:00 +2°C° 0,1 mm 1 m/S 736 mmHg 91%
    19:00 +2°C° 0,1 mm 1 m/S 737 mmHg 92%
    20:00 +1°C° 0,1 mm 1 m/S 737 mmHg 92%
    21:00 +1°C° 0,1 mm 1 m/S 738 mmHg 92%
    22:00 0°C° 0,1 mm 1 m/S 739 mmHg 92%
    23:00 0°C° 0,1 mm 1 m/S 739 mmHg 92%

    17 Dezember, Sonntag

    Zeit Temperatur Niederschläge Wind Luftdruck Luftfeuchtigkeit
    00:00 0°C° 0,1 mm 1 m/S 739 mmHg 92%
    01:00 0°C° 0,1 mm 1 m/S 740 mmHg 91%
    02:00 0°C° 0,1 mm 1 m/S 740 mmHg 91%
    03:00 -2°C° 0,1 mm 2 m/S 741 mmHg 91%
    04:00 -2°C° 0,1 mm 2 m/S 741 mmHg 91%
    05:00 -2°C° 0 mm 2 m/S 741 mmHg 91%
    06:00 -2°C° 0 mm 2 m/S 742 mmHg 92%
    07:00 -3°C° 0 mm 2 m/S 742 mmHg 92%
    08:00 -2°C° 0 mm 2 m/S 742 mmHg 90%
    09:00 -2°C° 0 mm 2 m/S 743 mmHg 89%
    10:00 -1°C° 0 mm 2 m/S 743 mmHg 87%
    11:00 -1°C° 0,1 mm 3 m/S 743 mmHg 85%
    12:00 0°C° 0,1 mm 3 m/S 743 mmHg 83%
    13:00 +1°C° 0,1 mm 3 m/S 743 mmHg 81%
    14:00 0°C° 0,1 mm 3 m/S 743 mmHg 83%
    15:00 +1°C° 0,1 mm 2 m/S 744 mmHg 85%
    16:00 +1°C° 0,1 mm 2 m/S 744 mmHg 87%
    17:00 +1°C° 0,1 mm 2 m/S 745 mmHg 89%
    18:00 -1°C° 0,1 mm 2 m/S 745 mmHg 91%
    19:00 +1°C° 0,1 mm 1 m/S 746 mmHg 93%
    20:00 +1°C° 0 mm 1 m/S 746 mmHg 93%
    21:00 0°C° 0 mm 1 m/S 746 mmHg 93%
    22:00 0°C° 0 mm 1 m/S 747 mmHg 93%
    23:00 0°C° 0 mm 1 m/S 747 mmHg 93%

    18 Dezember, Montag

    Zeit Temperatur Niederschläge Wind Luftdruck Luftfeuchtigkeit
    00:00 0°C° 0 mm 1 m/S 747 mmHg 93%
    01:00 -1°C° 0 mm 1 m/S 747 mmHg 93%
    02:00 0°C° 0 mm 1 m/S 747 mmHg 93%
    03:00 -2°C° 0 mm 2 m/S 747 mmHg 92%
    04:00 -2°C° 0 mm 2 m/S 747 mmHg 91%
    05:00 -2°C° 0 mm 2 m/S 747 mmHg 91%
    06:00 -2°C° 0 mm 2 m/S 746 mmHg 90%
    07:00 -2°C° 0 mm 2 m/S 746 mmHg 89%
    08:00 -2°C° 0,1 mm 3 m/S 746 mmHg 87%
    09:00 -1°C° 0,1 mm 3 m/S 746 mmHg 86%
    10:00 -1°C° 0,1 mm 4 m/S 745 mmHg 84%
    11:00 -1°C° 1,1 mm 4 m/S 744 mmHg 86%
    12:00 -1°C° 1,1 mm 5 m/S 743 mmHg 88%
    13:00 -1°C° 1,1 mm 5 m/S 742 mmHg 90%
    14:00 0°C° 0,8 mm 5 m/S 742 mmHg 90%
    15:00 0°C° 0,8 mm 4 m/S 741 mmHg 91%
    16:00 0°C° 0,8 mm 4 m/S 741 mmHg 92%
    17:00 0°C° 0,3 mm 4 m/S 741 mmHg 93%
    18:00 +2°C° 0,3 mm 3 m/S 741 mmHg 94%
    19:00 +2°C° 0,3 mm 3 m/S 742 mmHg 94%
    20:00 +3°C° 0,2 mm 2 m/S 742 mmHg 95%
    21:00 +3°C° 0,2 mm 2 m/S 743 mmHg 96%
    22:00 +3°C° 0,2 mm 1 m/S 743 mmHg 96%
    23:00 +3°C° 0,1 mm 1 m/S 744 mmHg 96%
    Mehr zeigen